Showing default

GALAXY 14, 28790

Orbit data source: Space-Track

GALAXY 14, 28790 is a payload satellite owned by Panamsat (US) in GEO that was launched on Sat, 13 Aug 2005 UTC via a SOYUZ-FG launch vehicle from the Tyuratam Missile And Space Complex (TTMTR). Payload-class satellites include a variety of spacecraft equipped with specific instruments for various scientific and technological missions. These include communications satellites like Starlink; space stations such as the ISS; scientific satellites like the Hubble; Earth observation satellites from companies like Planet Labs, Umbra, and HawkEye 360; GPS; miniature CubeSats for education and research; and military/defense satellites.

Not visible in the next 10 days
Identifier
28790, 2005-030A
Orbit
GEO
Country
Flag of USUS
Related business
Manufacturer
OSC
Mission
Non-operational Commercial Communications
Bus & Motor
OSC STAR 2, IHI LAE
Mass
2,087 kg wet, ~850 kg dry
Launch date (UTC)
2005-08-13 (20 years ago)
Launch vehicle
SOYUZ-FG
Launch site
Tyuratam Missile And Space Complex (TTMTR)
Object type
Payload
Rocket body
Debris
Shape & HBR
Box + 2 Pan, 6.3 m
Radar Cross Section
13.542 m², Large (>1 m²)

Expand to show TLE details & history
Last TLE update: 10 hours ago

TLE from 10 hours ago
0 GALAXY 14
1 28790U 05030A   25259.18761948 -.00000267  00000-0  00000-0 0  9997
2 28790   4.3158  78.3906 0001598  20.1717 126.2955  0.98917256 73516
Epoch: 2025-09-16T04:30Z
TLE epoch observation values (Epoch: 2025-09-16T04:30:10.323Z)
Latitude
2.40174°
Longitude
162.01903°
Altitude
36,173.866 km
Speed
3.061 km/s
True Right ascension
14h 59m 46s
True Declination
2° 23' 58"
Sunlit
Object was in daylight at epoch
Visualization orbit readout
Latitude
Unknown
Longitude
Unknown
Altitude
Unknown
Speed
Unknown
Apparent Right ascension
Unknown
Apparent Declination
Unknown
Sunlit
N/A
Visualization observer readout
Local Sidereal Time
07:01:41
Azimuth
Unknown
Elevation
Unknown
Doppler factor
Unknown
Orbital elements
Apogee altitude
36,178.497 km
Perigee altitude
36,164.898 km
Semi-major axis
42,549.835 km
Eccentricity
0.00016
Inclination
4.3158°
RAAN
78.3906°
Arg. of periapsis
20.1717°
True anomaly
126.31026°
Mean anomaly
126.2955°
Eccentric anomaly
126.30288°
Mean motion
0.24728 °/min
Orbital period
1,455.81 mins
BSTAR
0
Loading maneuver chart data...
Computing Atmospheric mass density...
Loading historical data...
Loading historical data...
Loading historical data...
Loading historical data...
Loading historical data...
Loading historical data...
Loading historical data...
Other satellites on launch #30 in the year 2005 (2005-08-13 UTC)

Documentation

Showing up to 5 results
|